LA8QT Lodingen NO current weather conditions

sailwx.info

Wind from 295 at 9 knots

Air temperature -3.3° C
Dewpoint -8.2° C

Last reported at 2018-Feb-18 17:59 UTC.
Time now 2018-Feb-18 18:18 UTC

Location: N 68°28' E 016°04'.
View on Google Maps.

See reports from other nearby stations

  
Tides and Currents Weather Stations Pressure Air Temp Water Temp Dewpoint Dewpoint Depression Visibility Wind Speed Wind Dir Waves Ship Positions
date/time (UTC)wind fromknots sea level pressurealtimeterstation pressurevisibilityair tempwater tempwave heightnotes
2018-Feb-18 17:59 295 9 -3.3
2018-Feb-18 17:44 295 10 -3.3
2018-Feb-18 17:29 295 8 -3.3
2018-Feb-18 17:14 295 7 -3.3
2018-Feb-18 16:59 295 8 -3.3
2018-Feb-18 16:44 332 8 -3.3
2018-Feb-18 16:29 295 6 -3.3
2018-Feb-18 16:14 295 5 -3.9
2018-Feb-18 15:59 323 4 -3.3
2018-Feb-18 15:44 295 6 -3.3
2018-Feb-18 15:29 295 7 -3.3
2018-Feb-18 15:14 295 6 -3.3
2018-Feb-18 14:59 332 6 -3.3
2018-Feb-18 14:44 295 4 -3.3
2018-Feb-18 14:29 319 5 -3.3
2018-Feb-18 14:14 351 5 -2.8
2018-Feb-18 14:00 311 5 -2.8
2018-Feb-18 13:44 329 5 -2.8
2018-Feb-18 13:29 295 7 -2.8
2018-Feb-18 13:14 295 6 -2.8
2018-Feb-18 12:59 295 6 -2.8
2018-Feb-18 12:44 295 6 -3.3
2018-Feb-18 12:29 295 6 -3.3
2018-Feb-18 12:14 023 5 -2.8
2018-Feb-18 11:59 295 6 -3.3
2018-Feb-18 11:44 346 6 -3.3
2018-Feb-18 11:29 340 6 -3.3
2018-Feb-18 11:14 295 6 -3.3
2018-Feb-18 10:59 295 5 -3.3
2018-Feb-18 10:44 295 4 -3.9
2018-Feb-18 10:29 295 6 -3.9
2018-Feb-18 10:14 295 7 -3.9
2018-Feb-18 09:59 295 6 -3.9
2018-Feb-18 09:44 295 5 -4.4
2018-Feb-18 09:29 336 3 -4.4
2018-Feb-18 09:14 295 5 -4.4
2018-Feb-18 08:59 295 7 -4.4
2018-Feb-18 08:44 339 4 -4.4
2018-Feb-18 08:29 333 3 -4.4
2018-Feb-18 08:14 295 4 -4.4
2018-Feb-18 07:59 295 6 -4.4
2018-Feb-18 07:44 295 5 -5.0
2018-Feb-18 07:29 295 5 -5.0
2018-Feb-18 07:14 351 7 -5.0
2018-Feb-18 06:59 295 6 -5.0
2018-Feb-18 06:44 295 6 -5.0
2018-Feb-18 06:29 325 5 -5.0
2018-Feb-18 06:14 295 5 -5.6
2018-Feb-18 05:58 344 4 -5.6
2018-Feb-18 05:44 295 3 -5.6
2018-Feb-18 05:28 327 4 -5.6
2018-Feb-18 05:13 295 3 -5.6
2018-Feb-18 04:58 339 4 -5.6
2018-Feb-18 04:43 346 6 -5.6
2018-Feb-18 04:28 295 6 -5.6
2018-Feb-18 04:13 295 5 -5.6
2018-Feb-18 03:58 295 3 -5.6
2018-Feb-18 03:43 333 5 -5.6
2018-Feb-18 03:28 295 4 -5.6
2018-Feb-18 03:13 341 3 -6.1
2018-Feb-18 02:58 323 3 -6.1
2018-Feb-18 02:43 316 2 -6.1
2018-Feb-18 02:28 318 3 -6.1
2018-Feb-18 02:13 316 3 -6.1
2018-Feb-18 01:58 323 4 -5.6
2018-Feb-18 01:43 334 4 -5.6
2018-Feb-18 01:28 325 6 -5.6
2018-Feb-18 01:13 319 5 -5.6
2018-Feb-18 00:58 333 5 -5.6
2018-Feb-18 00:43 327 4 -5.6
2018-Feb-18 00:28 336 4 -5.6
2018-Feb-18 00:13 321 4 -5.6
2018-Feb-17 23:58 295 4 -5.6
2018-Feb-17 23:43 295 6 -5.6
2018-Feb-17 23:28 325 5 -5.6
2018-Feb-17 23:13 329 5 -5.6
2018-Feb-17 22:58 295 5 -5.6
2018-Feb-17 22:43 325 6 -5.6
2018-Feb-17 22:28 295 6 -5.6
2018-Feb-17 22:13 340 6 -5.6
2018-Feb-17 21:58 331 6 -5.6
2018-Feb-17 21:43 295 4 -5.6
2018-Feb-17 21:28 319 5 -5.0
2018-Feb-17 21:13 331 5 -5.0
2018-Feb-17 20:58 325 5 -5.0
2018-Feb-17 20:43 325 5 -5.0
2018-Feb-17 20:28 335 4 -5.0
2018-Feb-17 20:13 329 4 -5.0
2018-Feb-17 19:58 329 4 -5.0
2018-Feb-17 19:43 323 3 -5.0
2018-Feb-17 19:31 318 3 -5.0
2018-Feb-17 19:13 295 5 -4.4
2018-Feb-17 18:58 295 5 -4.4
2018-Feb-17 18:43 336 3 -4.4
2018-Feb-17 18:28 344 3 -4.4
2018-Feb-17 18:13 295 4 -4.4
2018-Feb-17 17:58 331 3 -4.4
2018-Feb-17 17:43 295 3 -3.9
2018-Feb-17 17:28 333 4 -3.9
2018-Feb-17 17:13 333 5 -3.9
2018-Feb-17 16:58 328 4 -3.9
2018-Feb-17 16:43 295 4 -3.9
2018-Feb-17 16:28 339 3 -3.3
2018-Feb-17 16:12 340 3 -3.9
2018-Feb-17 15:57 339 3 -3.3
2018-Feb-17 15:43 339 3 -3.9
2018-Feb-17 15:28 340 3 -3.3
2018-Feb-17 15:13 340 3 -3.3
2018-Feb-17 14:57 340 2 -3.3
2018-Feb-17 14:42 340 3 -3.3
2018-Feb-17 14:27 342 2 -2.8
2018-Feb-17 14:12 353 3 -2.8
2018-Feb-17 13:57 352 2 -2.2
2018-Feb-17 13:42 352 2 -2.2
2018-Feb-17 13:27 014 0 -2.2
2018-Feb-17 13:12 014 -1.7
2018-Feb-17 12:57 015 0 -1.7
2018-Feb-17 12:42 016 1 -2.2
2018-Feb-17 12:27 019 4 -2.2
2018-Feb-17 12:12 295 3 -2.2
2018-Feb-17 11:57 295 3 -2.2
2018-Feb-17 11:42 040 4 -2.2
2018-Feb-17 11:27 018 6 -2.2
2018-Feb-17 11:12 295 6 -2.2
2018-Feb-17 10:57 295 6 -2.2
2018-Feb-17 10:42 295 5 -2.2
2018-Feb-17 10:27 008 7 -2.8
2018-Feb-17 10:12 021 6 -2.8
2018-Feb-17 09:57 295 3 -2.8
2018-Feb-17 09:42 359 4 -2.8
2018-Feb-17 09:27 014 6 -2.8
2018-Feb-17 09:12 348 2 -3.3
2018-Feb-17 08:57 004 3 -3.3
2018-Feb-17 08:42 295 3 -3.3
2018-Feb-17 08:27 351 2 -3.9
2018-Feb-17 08:12 295 2 -3.9
2018-Feb-17 07:57 295 2 -5.0
2018-Feb-17 07:42 295 3 -4.4
2018-Feb-17 07:27 326 3 -4.4
2018-Feb-17 07:12 354 2 -5.0
2018-Feb-17 06:57 350 2 -5.6
2018-Feb-17 06:42 295 2 -5.0
2018-Feb-17 06:27 348 2 -5.0
2018-Feb-17 06:12 295 1 -5.0
2018-Feb-17 05:57 349 1 -5.0
2018-Feb-17 05:42 349 1 -4.4
2018-Feb-17 05:27 350 2 -3.9
2018-Feb-17 05:12 337 2 -3.9
2018-Feb-17 04:57 332 2 -3.9
2018-Feb-17 04:42 354 2 -3.9
2018-Feb-17 04:27 355 2 -3.9
2018-Feb-17 04:12 295 1 -4.4
2018-Feb-17 03:57 341 0 -5.0
2018-Feb-17 03:42 342 2 -4.4
2018-Feb-17 03:27 342 -4.4
2018-Feb-17 03:12 346 1 -4.4
2018-Feb-17 02:57 341 0 -4.4
2018-Feb-17 02:42 346 2 -3.9
2018-Feb-17 02:27 295 3 -3.9
2018-Feb-17 02:12 355 6 -3.3
2018-Feb-17 01:57 295 8 -2.8
2018-Feb-17 01:42 359 4 -3.3
2018-Feb-17 01:27 295 6 -2.8
2018-Feb-17 01:12 295 6 -2.8
2018-Feb-17 00:57 295 5 -3.3
2018-Feb-17 00:42 011 3 -3.3
2018-Feb-17 00:27 295 4 -3.9
2018-Feb-17 00:12 339 2 -3.9
2018-Feb-16 23:57 336 4 -3.3
2018-Feb-16 23:41 295 2 -3.9
2018-Feb-16 23:27 346 2 -3.9
2018-Feb-16 23:11 349 1 -3.9
2018-Feb-16 22:56 346 4 -3.9
2018-Feb-16 22:41 295 2 -3.9
2018-Feb-16 22:26 352 2 -3.9
2018-Feb-16 22:11 295 3 -3.3
2018-Feb-16 21:56 331 0 -5.0
2018-Feb-16 21:41 328 2 -4.4
2018-Feb-16 21:26 343 0 -3.9
2018-Feb-16 21:11 295 1 -3.9
2018-Feb-16 20:56 295 1 -3.9
2018-Feb-16 20:41 352 3 -3.9
2018-Feb-16 20:26 344 3 -3.9
2018-Feb-16 20:11 352 3 -3.9
2018-Feb-16 19:56 348 4 -3.3
2018-Feb-16 19:41 350 1 -3.9
2018-Feb-16 19:26 295 2 -3.3
2018-Feb-16 19:11 358 -3.3
2018-Feb-16 18:56 295 4 -2.8
2018-Feb-16 18:41 344 5 -2.8
2018-Feb-16 18:26 341 1 -3.3
2018-Feb-16 18:11 347 2 -3.3